Location: Newark
(27.9675°N, 86.8869°E)
Time: 08:21:39
(UTC+00:00)

deb Explorer IX - Pass Details

Date: 31 October 2019
Orbit: 546 x 1105 km, 38.8° (Epoch: 11 November)

Event Time Altitude Azimuth Distance (km) Brightness Sun altitude
Rises 00:31:12 0° 206° (SSW) 2,801 ? 1.0°
Reaches altitude 10° 00:34:02 10° 188° (S) 1,848 ? 1.6°
Maximum altitude 00:37:04 19° 142° (SE) 1,320 ? 2.3°
Drops below altitude 10° 00:40:01 10° 95° (E) 1,802 ? 2.9°
Sets 00:42:44 0° 77° (ENE) 2,706 ? 3.4°
